User: anonymous
Location: Unspecified
(0.0000°N, 0.0000°E)
Time: 07:24:38
(UTC+00:00)
Language:

PROBA 2 - Orbit

View from above orbital plane
View from above orbital plane
View from above satellite
View from above satellite

Ground track
Ground track

The orbit data is extracted from the following two-line orbital elements,

1 36037U 09059B   14258.60181801  .00000194  00000-0  58255-4 0  5097
2 36037 098.2834 090.2380 0013387 185.9509 215.2093 14.52638742258128
Epoch (UTC): 15 September 2014 14:26:37
Eccentricity: 0.0013387
inclination: 98.2834°
perigee height: 707 km
apogee height: 726 km
right ascension of ascending node: 90.2380°
argument of perigee: 185.9509°
revolutions per day: 14.52638742
mean anomaly at epoch: 215.2093°
orbit number at epoch: 25812

The dashed part of the orbit path shows where the satellite is in the earth's shadow,  

DLR